Regional Weather Roundup
Issued by NWS

Home | Current Version | Previous Version | Text Only | Print | Product List | Glossary On
Versions: 1 2 3 4 5 6 7 8 9 10 11 12 13 14 15 16 17 18 19 20 21 22 23 24 25 26 27 28 29 30 31 32 33 34 35 36 37 38 39 40 41 42 43 44 45 46 47 48 49 50
000
ASUS43 KLMK 050110
RWRKY
KENTUCKY REGIONAL WEATHER ROUNDUP
NATIONAL WEATHER SERVICE LOUISVILLE KY
800 PM EST WED MAR 04 2015

NOTE "FAIR" INDICATES FEW OR NO CLOUDS BELOW 12,000 FEET
WITH NO SIGNIFICANT WEATHER AND/OR OBSTRUCTIONS TO VISIBILITY.

KYZ001>023-026-027-061>063-070>075-050200-
WESTERN AND SOUTH CENTRAL KENTUCKY

CITY           SKY/WX    TMP DP  RH WIND       PRES   REMARKS
PADUCAH        FOG       21  18  88 N16       30.23R VSB 1/2 WCI   7
HENDERSON      CLOUDY    19  16  86 N9G20     30.26R WCI   9
OWENSBORO      SNOW      21  19  92 N14       30.23R VSB 1/2 WCI   8
HOPKINSVILLE   SLEET     26  23  90 N13       30.13S WCI  15
BOWLING GREEN  FRZ RAIN  30  27  88 N9        30.12R FOG     WCI  22
GLASGOW        MIX PCPN  33  33 100 N10       30.09S WCI  25
$$

KYZ024-025-028>034-038-045-046-053-050200-
NORTH CENTRAL KENTUCKY

CITY           SKY/WX    TMP DP  RH WIND       PRES   REMARKS
LOUISVILLE/SDF SNOW      28  26  92 N16       30.17R VSB 1/2 WCI  16
LOUISVILLE/LOU SNOW      27  26  96 N8        30.18R VSB 1/2 WCI  19
FORT KNOX      LGT SNOW  27  25  91 N13       30.13R FOG     WCI  16
$$

KYZ035>037-039>044-047>052-055>060-089>105-050200-
NORTHEAST KENTUCKY

CITY           SKY/WX    TMP DP  RH WIND       PRES   REMARKS
LEXINGTON      LGT SNOW  31  30  96 N10       30.10R VSB 3/4 WCI  22
COVINGTON      LGT SNOW  27  24  89 NW15      30.12R VSB 3/4 WCI  15
FRANKFORT      LGT SNOW  29  27  92 NW12      30.11R VSB 3/4 WCI  19
$$

KYZ054-064>069-076>088-106>120-050200-
SOUTHEAST KENTUCKY

CITY           SKY/WX    TMP DP  RH WIND       PRES   REMARKS
JACKSON        RAIN      36  34  92 VRB6      30.03R FOG     WCI  31
LONDON         LGT RAIN  38  34  85 N10       30.04R WCI  31
SOMERSET       RAIN      34  34 100 N9        30.08R WCI  26
MIDDLESBORO    RAIN      45  43  93 NW9       29.96R
MONTICELLO     LGT SNOW  37  35  92 N10       30.09R FOG     WCI  30
$$




USA.gov is the U.S. government's official web portal to all federal, state and local government web resources and services.